TimeCDT,TemperatureF,Dew PointF,Humidity,Sea Level PressureIn,VisibilityMPH,Wind Direction,Wind SpeedMPH,Gust SpeedMPH,PrecipitationIn,Events,Conditions,WindDirDegrees,DateUTC
12:54 AM,53.1,48.0,83,30.12,10.0,NW,3.5,-,N/A,,Clear,320,2012-09-02 05:54:00
1:54 AM,50.0,46.9,89,30.13,10.0,Calm,Calm,-,N/A,,Clear,0,2012-09-02 06:54:00
2:54 AM,48.9,46.0,90,30.12,10.0,Calm,Calm,-,N/A,,Clear,0,2012-09-02 07:54:00
3:54 AM,46.9,45.0,93,30.12,4.0,Calm,Calm,-,N/A,,Clear,0,2012-09-02 08:54:00
4:54 AM,46.9,46.0,97,30.11,10.0,Calm,Calm,-,N/A,,Clear,0,2012-09-02 09:54:00
5:44 AM,44.6,44.6,100,30.09,1.8,Calm,Calm,-,N/A,,Clear,0,2012-09-02 10:44:00
5:54 AM,46.9,46.0,97,30.10,4.0,Calm,Calm,-,N/A,,Clear,0,2012-09-02 10:54:00
6:10 AM,46.4,44.6,93,30.09,2.5,Calm,Calm,-,N/A,,Clear,0,2012-09-02 11:10:00
6:19 AM,46.4,44.6,93,30.09,10.0,Calm,Calm,-,N/A,,Clear,0,2012-09-02 11:19:00
6:29 AM,46.4,44.6,93,30.08,10.0,Calm,Calm,-,N/A,,Scattered Clouds,0,2012-09-02 11:29:00
6:54 AM,48.0,46.0,93,30.09,10.0,Calm,Calm,-,N/A,,Mostly Cloudy,0,2012-09-02 11:54:00
7:54 AM,54.0,51.1,90,30.09,10.0,Calm,Calm,-,N/A,,Overcast,0,2012-09-02 12:54:00
8:46 AM,60.8,53.6,77,30.08,10.0,Calm,Calm,-,N/A,,Scattered Clouds,0,2012-09-02 13:46:00
8:54 AM,61.0,55.0,81,30.09,10.0,Calm,Calm,-,N/A,,Partly Cloudy,0,2012-09-02 13:54:00
9:54 AM,68.0,57.9,70,30.08,10.0,SE,5.8,-,N/A,,Clear,130,2012-09-02 14:54:00
10:54 AM,73.9,55.0,52,30.08,10.0,SE,10.4,-,N/A,,Clear,140,2012-09-02 15:54:00
11:54 AM,77.0,55.9,48,30.07,10.0,South,6.9,-,N/A,,Clear,170,2012-09-02 16:54:00
12:54 PM,80.1,55.9,43,30.05,10.0,SSE,12.7,-,N/A,,Clear,150,2012-09-02 17:54:00
1:54 PM,81.0,54.0,39,30.03,10.0,South,9.2,-,N/A,,Clear,170,2012-09-02 18:54:00
2:54 PM,82.0,54.0,38,30.00,10.0,SE,12.7,17.3,N/A,,Clear,140,2012-09-02 19:54:00
3:54 PM,82.0,53.1,37,29.99,10.0,ESE,9.2,-,N/A,,Clear,120,2012-09-02 20:54:00
4:54 PM,82.0,52.0,35,29.99,10.0,South,10.4,-,N/A,,Clear,170,2012-09-02 21:54:00
5:54 PM,79.0,53.1,40,29.97,10.0,SE,11.5,-,N/A,,Clear,140,2012-09-02 22:54:00
6:54 PM,75.0,52.0,44,29.97,10.0,SSE,9.2,-,N/A,,Clear,150,2012-09-02 23:54:00
7:54 PM,70.0,52.0,53,29.98,10.0,SE,6.9,-,N/A,,Clear,130,2012-09-03 00:54:00
8:54 PM,66.9,53.1,61,29.99,10.0,SE,4.6,-,N/A,,Clear,130,2012-09-03 01:54:00
9:54 PM,64.0,54.0,70,29.97,10.0,SE,4.6,-,N/A,,Clear,140,2012-09-03 02:54:00
11:54 PM,62.1,57.0,84,29.96,10.0,Calm,Calm,-,N/A,,Clear,0,2012-09-03 04:54:00